Time,TemperatureF,DewpointF,PressureIn,WindDirection,WindDirectionDegrees,WindSpeedMPH,WindSpeedGustMPH,Humidity,HourlyPrecipIn,Conditions,Clouds,dailyrainin,SoftwareType,DateUTC
2013-03-02 00:00:00,20.5,15.3,30.42,North,11,4.0,4.0,80,0.00,,,0.00,Wunderground v.1.15,2013-03-02 06:00:00,
2013-03-02 00:10:00,20.4,15.5,30.41,NNE,15,3.0,3.0,81,0.00,,,0.00,Wunderground v.1.15,2013-03-02 06:10:00,
2013-03-02 00:20:00,20.2,15.3,30.41,NNW,339,2.0,2.0,81,0.00,,,0.00,Wunderground v.1.15,2013-03-02 06:20:00,
2013-03-02 00:30:00,20.1,15.5,30.41,North,6,1.0,1.0,82,0.00,,,0.00,Wunderground v.1.15,2013-03-02 06:30:00,
2013-03-02 00:40:00,19.8,15.2,30.41,NNW,345,1.0,3.0,82,0.00,,,0.00,Wunderground v.1.15,2013-03-02 06:40:00,
2013-03-02 00:50:00,19.8,15.5,30.41,NNW,335,2.0,2.0,83,0.00,,,0.00,Wunderground v.1.15,2013-03-02 06:50:00,
2013-03-02 01:00:00,19.7,15.4,30.42,NNW,328,2.0,2.0,83,0.00,,,0.00,Wunderground v.1.15,2013-03-02 07:00:00,
2013-03-02 01:10:00,19.9,15.6,30.42,NNW,348,2.0,2.0,83,0.00,,,0.00,Wunderground v.1.15,2013-03-02 07:10:00,
2013-03-02 01:20:00,19.9,15.6,30.41,NNE,18,2.0,3.0,83,0.00,,,0.00,Wunderground v.1.15,2013-03-02 07:20:00,
2013-03-02 01:30:00,20.1,15.8,30.41,North,352,2.0,2.0,83,0.00,,,0.00,Wunderground v.1.15,2013-03-02 07:30:00,
2013-03-02 01:40:00,20.1,15.8,30.42,NNW,337,2.0,2.0,83,0.00,,,0.00,Wunderground v.1.15,2013-03-02 07:40:00,
2013-03-02 01:50:00,20.0,15.7,30.42,North,354,1.0,1.0,83,0.00,,,0.00,Wunderground v.1.15,2013-03-02 07:50:00,
2013-03-02 01:55:00,20.0,15.9,30.42,North,354,1.0,1.0,84,0.00,,,0.00,Wunderground v.1.15,2013-03-02 07:55:00,
2013-03-02 02:00:00,19.9,15.8,30.41,North,355,1.0,1.0,84,0.00,,,0.00,Wunderground v.1.15,2013-03-02 08:00:00,
2013-03-02 02:10:00,19.8,15.7,30.42,NW,310,0.0,0.0,84,0.00,,,0.00,Wunderground v.1.15,2013-03-02 08:10:00,
2013-03-02 02:20:00,19.7,15.6,30.41,North,359,1.0,1.0,84,0.00,,,0.00,Wunderground v.1.15,2013-03-02 08:20:00,
2013-03-02 02:25:00,19.7,15.6,30.41,WNW,287,1.0,2.0,84,0.00,,,0.00,Wunderground v.1.15,2013-03-02 08:25:00,
2013-03-02 02:35:00,19.2,15.2,30.41,NNW,327,2.0,2.0,84,0.00,,,0.00,Wunderground v.1.15,2013-03-02 08:35:00,
2013-03-02 02:45:00,18.7,14.9,30.41,NNW,335,1.0,2.0,85,0.00,,,0.00,Wunderground v.1.15,2013-03-02 08:45:00,
2013-03-02 02:50:00,18.5,14.7,30.41,NW,314,1.0,1.0,85,0.00,,,0.00,Wunderground v.1.15,2013-03-02 08:50:00,
2013-03-02 03:00:00,18.2,14.4,30.41,NNW,337,1.0,1.0,85,0.00,,,0.00,Wunderground v.1.15,2013-03-02 09:00:00,
2013-03-02 03:10:00,17.8,14.3,30.41,NNW,330,0.0,2.0,86,0.00,,,0.00,Wunderground v.1.15,2013-03-02 09:10:00,
2013-03-02 03:15:00,17.6,14.1,30.40,NNW,346,1.0,2.0,86,0.00,,,0.00,Wunderground v.1.15,2013-03-02 09:15:00,
2013-03-02 03:20:00,17.3,13.8,30.40,NNW,339,1.0,1.0,86,0.00,,,0.00,Wunderground v.1.15,2013-03-02 09:20:00,
2013-03-02 03:30:00,16.8,13.3,30.40,WNW,291,1.0,1.0,86,0.00,,,0.00,Wunderground v.1.15,2013-03-02 09:30:00,
2013-03-02 03:35:00,16.5,13.0,30.40,WNW,289,0.0,1.0,86,0.00,,,0.00,Wunderground v.1.15,2013-03-02 09:35:00,
2013-03-02 03:45:00,15.8,12.6,30.40,NNW,345,1.0,1.0,87,0.00,,,0.00,Wunderground v.1.15,2013-03-02 09:45:00,
2013-03-02 03:55:00,15.2,12.3,30.40,NW,305,1.0,2.0,88,0.00,,,0.00,Wunderground v.1.15,2013-03-02 09:55:00,
2013-03-02 04:00:00,15.1,12.2,30.40,NW,316,1.0,1.0,88,0.00,,,0.00,Wunderground v.1.15,2013-03-02 10:00:00,
2013-03-02 04:10:00,14.7,11.8,30.40,NW,323,2.0,2.0,88,0.00,,,0.00,Wunderground v.1.15,2013-03-02 10:10:00,
2013-03-02 04:20:00,14.2,11.3,30.40,NW,315,1.0,1.0,88,0.00,,,0.00,Wunderground v.1.15,2013-03-02 10:20:00,
2013-03-02 04:25:00,14.0,11.1,30.40,NNW,333,1.0,2.0,88,0.00,,,0.00,Wunderground v.1.15,2013-03-02 10:25:00,
2013-03-02 04:35:00,13.3,10.7,30.41,WNW,290,1.0,2.0,89,0.00,,,0.00,Wunderground v.1.15,2013-03-02 10:35:00,
2013-03-02 04:45:00,12.7,10.1,30.41,NW,316,1.0,2.0,89,0.00,,,0.00,Wunderground v.1.15,2013-03-02 10:45:00,
2013-03-02 04:55:00,12.3,9.7,30.41,NW,309,1.0,2.0,89,0.00,,,0.00,Wunderground v.1.15,2013-03-02 10:55:00,
2013-03-02 05:00:00,12.2,9.6,30.41,NW,310,1.0,1.0,89,0.00,,,0.00,Wunderground v.1.15,2013-03-02 11:00:00,
2013-03-02 05:10:00,12.1,9.7,30.41,North,354,1.0,1.0,90,0.00,,,0.00,Wunderground v.1.15,2013-03-02 11:10:00,
2013-03-02 05:20:00,11.9,9.5,30.41,NNW,333,1.0,1.0,90,0.00,,,0.00,Wunderground v.1.15,2013-03-02 11:20:00,
2013-03-02 05:30:00,11.6,9.2,30.41,NNW,338,1.0,2.0,90,0.00,,,0.00,Wunderground v.1.15,2013-03-02 11:30:00,
2013-03-02 05:40:00,11.5,9.1,30.42,NNW,333,2.0,2.0,90,0.00,,,0.00,Wunderground v.1.15,2013-03-02 11:40:00,
2013-03-02 05:50:00,11.4,9.0,30.42,NNW,336,1.0,1.0,90,0.00,,,0.00,Wunderground v.1.15,2013-03-02 11:50:00,
2013-03-02 06:00:00,11.1,8.7,30.42,NW,323,1.0,1.0,90,0.00,,,0.00,Wunderground v.1.15,2013-03-02 12:00:00,
2013-03-02 06:10:00,10.9,8.5,30.41,NW,308,0.0,0.0,90,0.00,,,0.00,Wunderground v.1.15,2013-03-02 12:10:00,
2013-03-02 06:15:00,10.9,8.5,30.41,NW,308,1.0,1.0,90,0.00,,,0.00,Wunderground v.1.15,2013-03-02 12:15:00,
2013-03-02 06:25:00,10.9,8.8,30.41,West,278,1.0,2.0,91,0.00,,,0.00,Wunderground v.1.15,2013-03-02 12:25:00,
2013-03-02 06:35:00,10.4,8.0,30.41,WNW,282,2.0,2.0,90,0.00,,,0.00,Wunderground v.1.15,2013-03-02 12:35:00,
2013-03-02 06:45:00,10.3,8.0,30.41,WNW,292,1.0,2.0,90,0.00,,,0.00,Wunderground v.1.15,2013-03-02 12:45:00,
2013-03-02 06:55:00,10.3,8.2,30.41,WNW,293,0.0,1.0,91,0.00,,,0.00,Wunderground v.1.15,2013-03-02 12:55:00,
2013-03-02 07:00:00,10.5,8.4,30.41,WNW,292,0.0,1.0,91,0.00,,,0.00,Wunderground v.1.15,2013-03-02 13:00:00,
2013-03-02 07:05:00,10.6,8.5,30.41,North,356,1.0,1.0,91,0.00,,,0.00,Wunderground v.1.15,2013-03-02 13:05:00,
2013-03-02 07:15:00,10.5,8.4,30.42,NNW,346,0.0,2.0,91,0.00,,,0.00,Wunderground v.1.15,2013-03-02 13:15:00,
2013-03-02 07:20:00,10.9,8.8,30.42,NNW,328,1.0,1.0,91,0.00,,,0.00,Wunderground v.1.15,2013-03-02 13:20:00,
2013-03-02 07:30:00,11.2,9.1,30.42,West,280,1.0,2.0,91,0.00,,,0.00,Wunderground v.1.15,2013-03-02 13:30:00,
2013-03-02 07:40:00,11.8,9.7,30.41,West,271,1.0,1.0,91,0.00,,,0.00,Wunderground v.1.15,2013-03-02 13:40:00,
2013-03-02 07:50:00,12.5,10.4,30.42,WNW,295,2.0,2.0,91,0.00,,,0.00,Wunderground v.1.15,2013-03-02 13:50:00,
2013-03-02 08:00:00,13.6,11.5,30.42,WNW,287,2.0,2.0,91,0.00,,,0.00,Wunderground v.1.15,2013-03-02 14:00:00,
2013-03-02 08:10:00,14.7,12.3,30.42,NW,315,2.0,2.0,90,0.00,,,0.00,Wunderground v.1.15,2013-03-02 14:10:00,
2013-03-02 08:15:00,15.3,12.9,30.41,NNE,18,1.0,2.0,90,0.00,,,0.00,Wunderground v.1.15,2013-03-02 14:15:00,
2013-03-02 08:25:00,16.1,13.4,30.41,NNW,345,1.0,2.0,89,0.00,,,0.00,Wunderground v.1.15,2013-03-02 14:25:00,
2013-03-02 08:35:00,17.2,14.5,30.41,North,352,1.0,1.0,89,0.00,,,0.00,Wunderground v.1.15,2013-03-02 14:35:00,
2013-03-02 08:45:00,18.4,15.4,30.42,NE,36,2.0,2.0,88,0.00,,,0.00,Wunderground v.1.15,2013-03-02 14:45:00,
2013-03-02 08:50:00,18.7,15.5,30.42,NW,316,2.0,2.0,87,0.00,,,0.00,Wunderground v.1.15,2013-03-02 14:50:00,
2013-03-02 09:00:00,19.6,16.4,30.42,NE,39,2.0,2.0,87,0.00,,,0.00,Wunderground v.1.15,2013-03-02 15:00:00,
2013-03-02 09:10:00,20.9,17.4,30.42,NNW,330,2.0,2.0,86,0.00,,,0.00,Wunderground v.1.15,2013-03-02 15:10:00,
2013-03-02 09:15:00,21.5,17.7,30.41,NNW,347,1.0,2.0,85,0.00,,,0.00,Wunderground v.1.15,2013-03-02 15:15:00,
2013-03-02 09:25:00,21.9,17.0,30.41,West,269,1.0,1.0,81,0.00,,,0.00,Wunderground v.1.15,2013-03-02 15:25:00,
2013-03-02 09:35:00,23.4,19.0,30.41,SW,226,0.0,1.0,83,0.00,,,0.00,Wunderground v.1.15,2013-03-02 15:35:00,
2013-03-02 09:45:00,23.8,18.2,30.40,SE,136,2.0,3.0,79,0.00,,,0.00,Wunderground v.1.15,2013-03-02 15:45:00,
2013-03-02 09:55:00,23.9,18.0,30.40,SE,129,2.0,2.0,78,0.00,,,0.00,Wunderground v.1.15,2013-03-02 15:55:00,
2013-03-02 10:00:00,24.7,19.1,30.39,SE,138,2.0,2.0,79,0.00,,,0.00,Wunderground v.1.15,2013-03-02 16:00:00,
2013-03-02 10:10:00,24.8,18.6,30.40,SE,139,1.0,1.0,77,0.00,,,0.00,Wunderground v.1.15,2013-03-02 16:10:00,
2013-03-02 10:20:00,25.8,19.0,30.39,SE,135,1.0,1.0,75,0.00,,,0.00,Wunderground v.1.15,2013-03-02 16:20:00,
2013-03-02 10:30:00,25.9,19.1,30.39,SW,233,1.0,1.0,75,0.00,,,0.00,Wunderground v.1.15,2013-03-02 16:30:00,
2013-03-02 10:40:00,27.2,20.3,30.38,South,169,1.0,3.0,75,0.00,,,0.00,Wunderground v.1.15,2013-03-02 16:40:00,
2013-03-02 10:45:00,27.5,20.0,30.39,WSW,254,2.0,3.0,73,0.00,,,0.00,Wunderground v.1.15,2013-03-02 16:45:00,
2013-03-02 10:55:00,27.1,19.9,30.37,SW,229,3.0,4.0,74,0.00,,,0.00,Wunderground v.1.15,2013-03-02 16:55:00,
2013-03-02 11:00:00,27.2,20.0,30.38,SW,215,2.0,4.0,74,0.00,,,0.00,Wunderground v.1.15,2013-03-02 17:00:00,
2013-03-02 11:10:00,27.4,19.9,30.38,WSW,249,3.0,4.0,73,0.00,,,0.00,Wunderground v.1.15,2013-03-02 17:10:00,
2013-03-02 11:20:00,27.5,19.7,30.37,SW,229,4.0,4.0,72,0.00,,,0.00,Wunderground v.1.15,2013-03-02 17:20:00,
2013-03-02 11:30:00,28.7,19.8,30.37,WSW,238,1.0,1.0,69,0.00,,,0.00,Wunderground v.1.15,2013-03-02 17:30:00,
2013-03-02 11:40:00,29.3,21.1,30.36,South,186,2.0,2.0,71,0.00,,,0.00,Wunderground v.1.15,2013-03-02 17:40:00,
2013-03-02 11:50:00,30.2,21.6,30.36,SE,131,2.0,2.0,70,0.00,,,0.00,Wunderground v.1.15,2013-03-02 17:50:00,
2013-03-02 12:00:00,30.8,21.5,30.36,South,178,2.0,3.0,68,0.00,,,0.00,Wunderground v.1.15,2013-03-02 18:00:00,
2013-03-02 12:05:00,30.6,20.6,30.36,West,269,3.0,3.0,66,0.00,,,0.00,Wunderground v.1.15,2013-03-02 18:05:00,
2013-03-02 12:15:00,30.7,21.0,30.35,SSW,198,3.0,4.0,67,0.00,,,0.00,Wunderground v.1.15,2013-03-02 18:15:00,
2013-03-02 12:25:00,30.9,21.2,30.34,SE,133,3.0,3.0,67,0.00,,,0.00,Wunderground v.1.15,2013-03-02 18:25:00,
2013-03-02 12:35:00,31.9,21.8,30.34,SSW,193,2.0,4.0,66,0.00,,,0.00,Wunderground v.1.15,2013-03-02 18:35:00,
2013-03-02 12:45:00,32.3,21.1,30.33,SSE,160,2.0,2.0,63,0.00,,,0.00,Wunderground v.1.15,2013-03-02 18:45:00,
2013-03-02 12:50:00,32.0,20.8,30.33,SE,135,3.0,3.0,63,0.00,,,0.00,Wunderground v.1.15,2013-03-02 18:50:00,
2013-03-02 13:00:00,31.4,21.3,30.32,SE,125,4.0,4.0,66,0.00,,,0.00,Wunderground v.1.15,2013-03-02 19:00:00,
2013-03-02 13:10:00,31.2,21.2,30.32,SSE,156,4.0,4.0,66,0.00,,,0.00,Wunderground v.1.15,2013-03-02 19:10:00,
2013-03-02 13:15:00,31.6,21.9,30.32,SSE,155,4.0,4.0,67,0.00,,,0.00,Wunderground v.1.15,2013-03-02 19:15:00,
2013-03-02 13:25:00,32.1,22.0,30.31,SSE,155,4.0,4.0,66,0.00,,,0.00,Wunderground v.1.15,2013-03-02 19:25:00,
2013-03-02 13:35:00,32.0,21.9,30.30,SSE,158,4.0,4.0,66,0.00,,,0.00,Wunderground v.1.15,2013-03-02 19:35:00,
2013-03-02 13:45:00,32.4,22.7,30.30,SSE,155,4.0,7.0,67,0.00,,,0.00,Wunderground v.1.15,2013-03-02 19:45:00,
2013-03-02 13:55:00,32.7,22.9,30.29,SSE,150,5.0,6.0,67,0.00,,,0.00,Wunderground v.1.15,2013-03-02 19:55:00,
2013-03-02 14:00:00,32.9,22.8,30.29,South,179,4.0,4.0,66,0.00,,,0.00,Wunderground v.1.15,2013-03-02 20:00:00,
2013-03-02 14:10:00,33.0,22.9,30.29,SE,141,4.0,4.0,66,0.00,,,0.00,Wunderground v.1.15,2013-03-02 20:10:00,
2013-03-02 14:20:00,33.3,22.8,30.29,ESE,103,4.0,4.0,65,0.00,,,0.00,Wunderground v.1.15,2013-03-02 20:20:00,
2013-03-02 14:30:00,34.1,23.2,30.28,ESE,108,4.0,4.0,64,0.00,,,0.00,Wunderground v.1.15,2013-03-02 20:30:00,
2013-03-02 14:40:00,34.3,23.0,30.27,SSE,162,5.0,8.0,63,0.00,,,0.00,Wunderground v.1.15,2013-03-02 20:40:00,
2013-03-02 14:45:00,34.4,22.7,30.27,SE,129,6.0,8.0,62,0.00,,,0.00,Wunderground v.1.15,2013-03-02 20:45:00,
2013-03-02 14:55:00,35.2,23.5,30.27,SE,131,5.0,6.0,62,0.00,,,0.00,Wunderground v.1.15,2013-03-02 20:55:00,
2013-03-02 15:00:00,35.5,23.8,30.27,SE,125,4.0,4.0,62,0.00,,,0.00,Wunderground v.1.15,2013-03-02 21:00:00,
2013-03-02 15:10:00,35.3,23.2,30.27,SE,133,5.0,5.0,61,0.00,,,0.00,Wunderground v.1.15,2013-03-02 21:10:00,
2013-03-02 15:20:00,35.1,23.4,30.27,SSE,155,3.0,6.0,62,0.00,,,0.00,Wunderground v.1.15,2013-03-02 21:20:00,
2013-03-02 15:30:00,35.2,23.9,30.26,ESE,123,6.0,6.0,63,0.00,,,0.00,Wunderground v.1.15,2013-03-02 21:30:00,
2013-03-02 15:40:00,35.7,24.7,30.26,SE,136,5.0,6.0,64,0.00,,,0.00,Wunderground v.1.15,2013-03-02 21:40:00,
2013-03-02 15:45:00,35.9,24.9,30.25,SSE,150,5.0,6.0,64,0.00,,,0.00,Wunderground v.1.15,2013-03-02 21:45:00,
2013-03-02 15:55:00,35.9,24.1,30.26,SE,134,5.0,6.0,62,0.00,,,0.00,Wunderground v.1.15,2013-03-02 21:55:00,
2013-03-02 16:00:00,35.7,23.6,30.25,ESE,123,5.0,7.0,61,0.00,,,0.00,Wunderground v.1.15,2013-03-02 22:00:00,
2013-03-02 16:05:00,36.0,24.2,30.25,SE,141,5.0,7.0,62,0.00,,,0.00,Wunderground v.1.15,2013-03-02 22:05:00,
2013-03-02 16:15:00,36.3,24.5,30.25,SSE,157,4.0,5.0,62,0.00,,,0.00,Wunderground v.1.15,2013-03-02 22:15:00,
2013-03-02 16:20:00,36.3,24.9,30.25,SSE,156,5.0,5.0,63,0.00,,,0.00,Wunderground v.1.15,2013-03-02 22:20:00,
2013-03-02 16:30:00,35.8,25.5,30.25,SSE,152,6.0,6.0,66,0.00,,,0.00,Wunderground v.1.15,2013-03-02 22:30:00,
2013-03-02 16:40:00,35.2,25.7,30.24,SE,133,6.0,6.0,68,0.00,,,0.00,Wunderground v.1.15,2013-03-02 22:40:00,
2013-03-02 16:50:00,34.8,26.0,30.23,SE,131,6.0,6.0,70,0.00,,,0.00,Wunderground v.1.15,2013-03-02 22:50:00,
2013-03-02 17:01:00,34.4,26.0,30.23,SE,134,5.0,5.0,71,0.00,,,0.00,Wunderground v.1.15,2013-03-02 23:01:00,
2013-03-02 17:10:00,34.1,25.7,30.22,ESE,103,6.0,7.0,71,0.00,,,0.00,Wunderground v.1.15,2013-03-02 23:10:00,
2013-03-02 17:15:00,34.0,25.6,30.22,SE,125,6.0,7.0,71,0.00,,,0.00,Wunderground v.1.15,2013-03-02 23:15:00,
2013-03-02 17:25:00,33.8,26.1,30.23,SE,145,5.0,5.0,73,0.00,,,0.00,Wunderground v.1.15,2013-03-02 23:25:00,
2013-03-02 17:30:00,34.0,26.3,30.23,SSE,153,5.0,6.0,73,0.00,,,0.00,Wunderground v.1.15,2013-03-02 23:30:00,
2013-03-02 17:35:00,34.3,26.2,30.22,ESE,115,5.0,6.0,72,0.00,,,0.00,Wunderground v.1.15,2013-03-02 23:35:00,
2013-03-02 17:45:00,34.1,26.0,30.22,East,82,6.0,7.0,72,0.00,,,0.00,Wunderground v.1.15,2013-03-02 23:45:00,
2013-03-02 17:55:00,33.7,26.3,30.22,ESE,120,5.0,5.0,74,0.00,,,0.00,Wunderground v.1.15,2013-03-02 23:55:00,
2013-03-02 18:00:00,33.4,26.0,30.22,SE,133,6.0,6.0,74,0.00,,,0.00,Wunderground v.1.15,2013-03-03 00:00:00,
2013-03-02 18:10:00,32.9,25.8,30.21,SSE,150,5.0,5.0,75,0.00,,,0.00,Wunderground v.1.15,2013-03-03 00:10:00,
2013-03-02 18:15:00,32.6,25.9,30.22,SE,145,5.0,5.0,76,0.00,,,0.00,Wunderground v.1.15,2013-03-03 00:15:00,
2013-03-02 18:25:00,32.2,25.8,30.21,SE,125,4.0,6.0,77,0.00,,,0.00,Wunderground v.1.15,2013-03-03 00:25:00,
2013-03-02 18:35:00,31.7,25.6,30.22,SE,140,4.0,5.0,78,0.00,,,0.00,Wunderground v.1.15,2013-03-03 00:35:00,
2013-03-02 18:45:00,31.2,25.4,30.22,SSE,148,4.0,4.0,79,0.00,,,0.00,Wunderground v.1.15,2013-03-03 00:45:00,
2013-03-02 18:55:00,30.8,25.1,30.21,SE,141,4.0,5.0,79,0.00,,,0.00,Wunderground v.1.15,2013-03-03 00:55:00,
2013-03-02 19:00:00,30.7,25.3,30.21,SE,141,4.0,4.0,80,0.00,,,0.00,Wunderground v.1.15,2013-03-03 01:00:00,
2013-03-02 19:10:00,30.4,25.3,30.21,ESE,120,4.0,5.0,81,0.00,,,0.00,Wunderground v.1.15,2013-03-03 01:10:00,
2013-03-02 19:20:00,30.1,25.0,30.21,SE,141,3.0,3.0,81,0.00,,,0.00,Wunderground v.1.15,2013-03-03 01:20:00,
2013-03-02 19:30:00,29.9,25.1,30.20,SE,127,3.0,3.0,82,0.00,,,0.00,Wunderground v.1.15,2013-03-03 01:30:00,
2013-03-02 19:40:00,29.8,25.0,30.20,SE,142,3.0,3.0,82,0.00,,,0.00,Wunderground v.1.15,2013-03-03 01:40:00,
2013-03-02 19:45:00,29.8,25.0,30.20,SSE,162,3.0,3.0,82,0.00,,,0.00,Wunderground v.1.15,2013-03-03 01:45:00,
2013-03-02 19:50:00,29.8,25.0,30.20,SSE,148,3.0,3.0,82,0.00,,,0.00,Wunderground v.1.15,2013-03-03 01:50:00,
2013-03-02 20:00:00,29.8,25.0,30.20,SE,138,4.0,4.0,82,0.00,,,0.00,Wunderground v.1.15,2013-03-03 02:00:00,
2013-03-02 20:10:00,29.9,25.1,30.20,SE,142,3.0,5.0,82,0.00,,,0.00,Wunderground v.1.15,2013-03-03 02:10:00,
2013-03-02 20:20:00,30.1,25.3,30.20,SSE,158,5.0,5.0,82,0.00,,,0.00,Wunderground v.1.15,2013-03-03 02:20:00,
2013-03-02 20:30:00,30.3,25.2,30.20,SSE,162,5.0,6.0,81,0.00,,,0.00,Wunderground v.1.15,2013-03-03 02:30:00,
2013-03-02 20:40:00,30.3,25.2,30.20,SSE,155,5.0,7.0,81,0.00,,,0.00,Wunderground v.1.15,2013-03-03 02:40:00,
2013-03-02 20:50:00,30.3,25.2,30.19,SSE,157,6.0,6.0,81,0.00,,,0.00,Wunderground v.1.15,2013-03-03 02:50:00,
2013-03-02 21:00:00,30.3,25.2,30.19,SSE,152,6.0,6.0,81,0.00,,,0.00,Wunderground v.1.15,2013-03-03 03:00:00,
2013-03-02 21:10:00,30.2,25.1,30.19,SSE,167,6.0,6.0,81,0.00,,,0.00,Wunderground v.1.15,2013-03-03 03:10:00,
2013-03-02 21:15:00,30.2,25.4,30.18,SSE,150,6.0,6.0,82,0.00,,,0.00,Wunderground v.1.15,2013-03-03 03:15:00,
2013-03-02 21:25:00,30.2,25.4,30.18,SSE,152,6.0,6.0,82,0.00,,,0.00,Wunderground v.1.15,2013-03-03 03:25:00,
2013-03-02 21:35:00,30.2,25.4,30.18,SSE,150,6.0,6.0,82,0.00,,,0.00,Wunderground v.1.15,2013-03-03 03:35:00,
2013-03-02 21:45:00,30.2,25.7,30.17,SE,136,5.0,6.0,83,0.00,,,0.00,Wunderground v.1.15,2013-03-03 03:45:00,
2013-03-02 21:55:00,30.1,25.6,30.17,SE,146,5.0,5.0,83,0.00,,,0.00,Wunderground v.1.15,2013-03-03 03:55:00,
2013-03-02 22:00:00,30.0,25.5,30.17,SSE,155,5.0,5.0,83,0.00,,,0.00,Wunderground v.1.15,2013-03-03 04:00:00,
2013-03-02 22:10:00,29.9,25.7,30.17,SSE,150,4.0,5.0,84,0.00,,,0.00,Wunderground v.1.15,2013-03-03 04:10:00,
2013-03-02 22:20:00,29.8,25.6,30.17,SE,144,5.0,6.0,84,0.00,,,0.00,Wunderground v.1.15,2013-03-03 04:20:00,
2013-03-02 22:30:00,29.7,25.5,30.17,SSE,150,5.0,5.0,84,0.00,,,0.00,Wunderground v.1.15,2013-03-03 04:30:00,
2013-03-02 22:40:00,29.6,25.6,30.17,SE,131,4.0,5.0,85,0.00,,,0.00,Wunderground v.1.15,2013-03-03 04:40:00,
2013-03-02 22:45:00,29.5,25.5,30.17,ESE,104,4.0,5.0,85,0.00,,,0.00,Wunderground v.1.15,2013-03-03 04:45:00,
2013-03-02 22:55:00,29.3,25.6,30.17,SSE,148,2.0,3.0,86,0.00,,,0.00,Wunderground v.1.15,2013-03-03 04:55:00,
2013-03-02 23:00:00,29.2,25.5,30.16,SSE,150,3.0,3.0,86,0.00,,,0.00,Wunderground v.1.15,2013-03-03 05:00:00,
2013-03-02 23:05:00,29.2,25.5,30.16,SSE,152,3.0,3.0,86,0.00,,,0.00,Wunderground v.1.15,2013-03-03 05:05:00,
2013-03-02 23:10:00,29.2,25.5,30.16,SE,139,3.0,4.0,86,0.00,,,0.00,Wunderground v.1.15,2013-03-03 05:10:00,
2013-03-02 23:20:00,29.0,25.6,30.15,SE,145,4.0,5.0,87,0.00,,,0.00,Wunderground v.1.15,2013-03-03 05:20:00,
2013-03-02 23:25:00,28.9,25.5,30.15,SE,145,3.0,5.0,87,0.00,,,0.00,Wunderground v.1.15,2013-03-03 05:25:00,
2013-03-02 23:30:00,28.7,25.3,30.14,SE,142,3.0,3.0,87,0.00,,,0.00,Wunderground v.1.15,2013-03-03 05:30:00,
2013-03-02 23:40:00,28.2,24.8,30.15,SE,141,2.0,2.0,87,0.00,,,0.00,Wunderground v.1.15,2013-03-03 05:40:00,
2013-03-02 23:50:00,27.9,24.8,30.15,ESE,117,2.0,2.0,88,0.00,,,0.00,Wunderground v.1.15,2013-03-03 05:50:00,
2013-03-02 23:55:00,27.8,24.7,30.15,SE,131,2.0,2.0,88,0.00,,,0.00,Wunderground v.1.15,2013-03-03 05:55:00,